| time (UTC) | temp F | wind direction | speed knots | gust knots | rain 1hr in | rain 24hr in | rain mn in | humidity % | barometer mb |
| 20260906234534 | 72 | 22 | 3.5 | 7.8 | 0.00 | 0.00 | 0.00 | 42 | 1005.8 |
| 20260906233034 | 76 | 296 | 5.2 | 11.3 | 0.00 | 0.00 | 0.00 | 37 | 1005.9 |
| 20260906231532 | 76 | 279 | 4.3 | 8.7 | 0.00 | 0.00 | 0.00 | 36 | 1005.7 |
| 20260906230030 | 74 | 304 | 5.2 | 14.8 | 0.00 | 0.00 | 0.00 | 37 | 1005.8 |
| 20260906224629 | 76 | 256 | 5.2 | 14.8 | 0.00 | 0.00 | 0.00 | 36 | 1005.5 |
| 20260906223031 | 80 | 299 | 6.1 | 13.9 | 0.00 | 0.00 | 0.00 | 33 | 1005.4 |
| 20260906221527 | 81 | 304 | 6.1 | 13.9 | 0.00 | 0.00 | 0.00 | 32 | 1005.2 |
| 20260906220026 | 78 | 300 | 5.2 | 12.2 | 0.00 | 0.00 | 0.00 | 32 | 1005.2 |
| 20260906214525 | 79 | 72 | 6.1 | 10.4 | 0.00 | 0.00 | 0.00 | 31 | 1004.9 |
| 20260906213124 | 80 | 304 | 2.6 | 6.1 | 0.00 | 0.00 | 0.00 | 34 | 1004.6 |
| 20260906211523 | 80 | 342 | 3.5 | 7.8 | 0.00 | 0.00 | 0.00 | 33 | 1004.6 |
| 20260906210023 | 81 | 306 | 2.6 | 6.1 | 0.00 | 0.00 | 0.00 | 32 | 1004.6 |
| 20260906204531 | 81 | 348 | 0.0 | 6.1 | 0.00 | 0.00 | 0.00 | 32 | 1004.4 |
| 20260906203021 | 82 | 272 | 1.7 | 5.2 | 0.00 | 0.00 | 0.00 | 31 | 1004.6 |
| 20260906201520 | 82 | 40 | 0.9 | 7.8 | 0.00 | 0.00 | 0.00 | 32 | 1004.6 |
| 20260906200118 | 82 | 319 | 1.7 | 7.0 | 0.00 | 0.00 | 0.00 | 31 | 1004.8 |
| 20260906194517 | 82 | 195 | 4.3 | 10.4 | 0.00 | 0.00 | 0.00 | 31 | 1005.0 |
| 20260906193014 | 85 | 276 | 4.3 | 9.6 | 0.00 | 0.00 | 0.00 | 29 | 1005.3 |
| 20260906191524 | 81 | 276 | 2.6 | 9.6 | 0.00 | 0.00 | 0.00 | 31 | 1005.6 |
| 20260906190009 | 82 | 34 | 3.5 | 9.6 | 0.00 | 0.00 | 0.00 | 29 | 1005.9 |
| 20260906184507 | 83 | 326 | 2.6 | 10.4 | 0.00 | 0.00 | 0.00 | 29 | 1006.2 |
| 20260906183010 | 84 | 169 | 1.7 | 8.7 | 0.00 | 0.00 | 0.00 | 29 | 1006.4 |
| 20260906181607 | 82 | 291 | 1.7 | 5.2 | 0.00 | 0.00 | 0.00 | 29 | 1006.5 |
| 20260906180002 | 81 | 198 | 1.7 | 9.6 | 0.00 | 0.00 | 0.00 | 29 | 1006.7 |
| 20260906174501 | 81 | 254 | 0.9 | 6.1 | 0.00 | 0.00 | 0.00 | 29 | 1006.9 |
| 20260906173106 | 81 | 224 | 0.9 | 6.1 | 0.00 | 0.00 | 0.00 | 28 | 1007.0 |
| 20260906171607 | 80 | 207 | 0.9 | 6.1 | 0.00 | 0.00 | 0.00 | 27 | 1007.0 |
| 20260906170109 | 81 | 282 | 0.9 | 7.0 | 0.00 | 0.00 | 0.00 | 28 | 1007.1 |
| 20260906164602 | 82 | 323 | 2.6 | 8.7 | 0.00 | 0.00 | 0.00 | 27 | 1007.1 |
| 20260906163107 | 82 | 147 | 0.9 | 7.0 | 0.00 | 0.00 | 0.00 | 30 | 1007.0 |
| 20260906161555 | 82 | 275 | 2.6 | 8.7 | 0.00 | 0.00 | 0.00 | 29 | 1006.9 |
| 20260906160054 | 82 | 134 | 5.2 | 9.6 | 0.00 | 0.00 | 0.00 | 29 | 1007.1 |
| 20260906154557 | 80 | 253 | 2.6 | 7.8 | 0.00 | 0.00 | 0.00 | 28 | 1007.0 |
| 20260906153049 | 80 | 175 | 1.7 | 10.4 | 0.00 | 0.00 | 0.00 | 28 | 1007.2 |
| 20260906151546 | 78 | 283 | 1.7 | 6.1 | 0.00 | 0.00 | 0.00 | 29 | 1007.1 |
| 20260906150043 | 75 | 217 | 0.9 | 4.3 | 0.00 | 0.00 | 0.00 | 31 | 1007.1 |
| 20260906144542 | 75 | 165 | 0.0 | 5.2 | 0.00 | 0.00 | 0.00 | 34 | 1007.1 |
| 20260906143041 | 75 | 117 | 1.7 | 5.2 | 0.00 | 0.00 | 0.00 | 34 | 1007.0 |
| 20260906141540 | 74 | 91 | 2.6 | 7.8 | 0.00 | 0.00 | 0.00 | 32 | 1007.2 |
| 20260906140036 | 74 | 114 | 1.7 | 4.3 | 0.00 | 0.00 | 0.00 | 32 | 1007.4 |
| 20260906134535 | 73 | 96 | 3.5 | 7.0 | 0.00 | 0.00 | 0.00 | 31 | 1007.2 |
| 20260906133032 | 72 | 139 | 1.7 | 6.1 | 0.00 | 0.00 | 0.00 | 32 | 1007.3 |
| 20260906131540 | 70 | 145 | 1.7 | 4.3 | 0.00 | 0.00 | 0.00 | 34 | 1007.3 |
| 20260906130028 | 71 | 117 | 2.6 | 7.0 | 0.00 | 0.00 | 0.00 | 33 | 1007.4 |
| 20260906124527 | 66 | 117 | 2.6 | 5.2 | 0.00 | 0.00 | 0.00 | 37 | 1007.4 |
| 20260906123026 | 66 | 143 | 0.9 | 2.6 | 0.00 | 0.00 | 0.00 | 38 | 1007.1 |
| 20260906121526 | 67 | 162 | 0.0 | 2.6 | 0.00 | 0.00 | 0.00 | 38 | 1006.9 |
| 20260906120025 | 67 | 161 | 0.9 | 2.6 | 0.00 | 0.00 | 0.00 | 37 | 1006.7 |
| 20260906114524 | 68 | 157 | 0.0 | 2.6 | 0.00 | 0.00 | 0.00 | 36 | 1006.7 |
| 20260906113024 | 70 | 141 | 0.9 | 5.2 | 0.00 | 0.00 | 0.00 | 34 | 1006.5 |
| 20260906111522 | 69 | 133 | 0.9 | 4.3 | 0.00 | 0.00 | 0.00 | 35 | 1006.5 |
| 20260906110021 | 69 | 130 | 0.0 | 4.3 | 0.00 | 0.00 | 0.00 | 35 | 1006.6 |
| 20260906104533 | 70 | 115 | 2.6 | 7.0 | 0.00 | 0.00 | 0.00 | 34 | 1006.6 |
| 20260906103021 | 70 | 153 | 1.7 | 6.1 | 0.00 | 0.00 | 0.00 | 34 | 1006.5 |
| 20260906101520 | 69 | 140 | 2.6 | 5.2 | 0.00 | 0.00 | 0.00 | 34 | 1006.7 |
| 20260906100019 | 71 | 157 | 2.6 | 6.1 | 0.00 | 0.00 | 0.00 | 32 | 1006.6 |
| 20260906094534 | 71 | 153 | 3.5 | 7.0 | 0.00 | 0.00 | 0.00 | 31 | 1006.7 |
| 20260906093027 | 71 | 77 | 3.5 | 7.8 | 0.00 | 0.00 | 0.00 | 32 | 1006.9 |
| 20260906091515 | 71 | 149 | 2.6 | 6.1 | 0.00 | 0.00 | 0.00 | 31 | 1006.9 |
| 20260906090015 | 71 | 85 | 3.5 | 9.6 | 0.00 | 0.00 | 0.00 | 31 | 1006.7 |
| 20260906084513 | 71 | 102 | 3.5 | 8.7 | 0.00 | 0.00 | 0.00 | 31 | 1006.9 |
| 20260906083016 | 71 | 155 | 3.5 | 10.4 | 0.00 | 0.00 | 0.00 | 31 | 1007.0 |
| 20260906081510 | 69 | 122 | 0.9 | 4.3 | 0.00 | 0.00 | 0.00 | 32 | 1007.4 |
| 20260906080004 | 69 | 150 | 0.9 | 7.0 | 0.00 | 0.00 | 0.00 | 32 | 1007.5 |
| 20260906074503 | 68 | 131 | 2.6 | 6.1 | 0.00 | 0.00 | 0.00 | 32 | 1007.4 |
| 20260906073002 | 66 | 132 | 1.7 | 4.3 | 0.00 | 0.00 | 0.00 | 34 | 1007.3 |
| 20260906071603 | 65 | 158 | 0.0 | 2.6 | 0.00 | 0.00 | 0.00 | 34 | 1007.5 |
| 20260906070059 | 66 | 177 | 0.9 | 3.5 | 0.00 | 0.00 | 0.00 | 33 | 1007.4 |
| 20260906064558 | 67 | 153 | 0.9 | 4.3 | 0.00 | 0.00 | 0.00 | 32 | 1007.5 |
| 20260906063058 | 65 | 133 | 1.7 | 4.3 | 0.00 | 0.00 | 0.00 | 33 | 1007.4 |
| 20260906061557 | 66 | 150 | 2.6 | 7.0 | 0.00 | 0.00 | 0.00 | 32 | 1007.4 |
| 20260906060150 | 68 | 155 | 1.7 | 7.8 | 0.00 | 0.00 | 0.00 | 30 | 1007.5 |
| 20260906054550 | 65 | 138 | 0.9 | 2.6 | 0.00 | 0.00 | 0.00 | 33 | 1007.5 |
| 20260906053053 | 67 | 143 | 1.7 | 6.1 | 0.00 | 0.00 | 0.00 | 31 | 1007.3 |
| 20260906051553 | 69 | 140 | 2.6 | 5.2 | 0.00 | 0.00 | 0.00 | 30 | 1007.2 |
| 20260906050047 | 70 | 102 | 3.5 | 7.0 | 0.00 | 0.00 | 0.00 | 30 | 1007.3 |
| 20260906044547 | 70 | 133 | 1.7 | 7.8 | 0.00 | 0.00 | 0.00 | 30 | 1007.3 |
| 20260906043046 | 70 | 117 | 3.5 | 7.8 | 0.00 | 0.00 | 0.00 | 30 | 1007.6 |
| 20260906041548 | 68 | 159 | 1.7 | 4.3 | 0.00 | 0.00 | 0.00 | 32 | 1007.6 |
| 20260906040044 | 69 | 214 | 0.9 | 7.8 | 0.00 | 0.00 | 0.00 | 32 | 1007.5 |
| 20260906034548 | 67 | 188 | 0.0 | 2.6 | 0.00 | 0.00 | 0.00 | 34 | 1007.4 |
| 20260906033045 | 68 | 141 | 0.9 | 3.5 | 0.00 | 0.00 | 0.00 | 34 | 1007.3 |
| 20260906031542 | 67 | 148 | 0.0 | 3.5 | 0.00 | 0.00 | 0.00 | 35 | 1006.9 |
| 20260906030042 | 67 | 170 | 0.9 | 4.3 | 0.00 | 0.00 | 0.00 | 36 | 1006.5 |
| 20260906024556 | 67 | 143 | 0.0 | 2.6 | 0.00 | 0.00 | 0.00 | 36 | 1006.3 |
| 20260906023042 | 69 | 142 | 0.9 | 4.3 | 0.00 | 0.00 | 0.00 | 34 | 1006.0 |
| 20260906021540 | 70 | 127 | 0.9 | 3.5 | 0.00 | 0.00 | 0.00 | 34 | 1005.7 |
| 20260906020046 | 74 | 141 | 0.0 | 1.7 | 0.00 | 0.00 | 0.00 | 31 | 1005.4 |
| 20260906014551 | 78 | 289 | 0.0 | 0.9 | 0.00 | 0.00 | 0.00 | 28 | 1005.1 |
| 20260906013043 | 81 | 278 | 0.0 | 4.3 | 0.00 | 0.00 | 0.00 | 26 | 1005.1 |
| 20260906011541 | 82 | 249 | 3.5 | 7.8 | 0.00 | 0.00 | 0.00 | 25 | 1005.1 |
| 20260906010036 | 83 | 280 | 1.7 | 6.1 | 0.00 | 0.00 | 0.00 | 25 | 1005.0 |
| 20260906004541 | 83 | 224 | 1.7 | 7.8 | 0.00 | 0.00 | 0.00 | 25 | 1005.1 |
| 20260906003047 | 84 | 257 | 0.0 | 7.8 | 0.00 | 0.00 | 0.00 | 24 | 1004.9 |
| 20260906001534 | 84 | 221 | 3.5 | 8.7 | 0.00 | 0.00 | 0.00 | 25 | 1004.9 |
| 20260906000034 | 84 | 325 | 0.9 | 7.8 | 0.00 | 0.00 | 0.00 | 25 | 1004.9 |